Temperature
10 10 10 10 10 10 10 10 10 10 10 10 10 10 11 10 10 10 10 11 11 11 11 11 11 11 11 11 11 11 11 11 11 11 11 11 11 11 11 11 11 11 11
10 10 10 10 10 10 10 10 10 10 10 10 10 10 10 10 10 10 10 10 10 10 10 10 10 10 10 10 10 10 10 10 10 10 10 10 11 11 11 11 11 11 10
9 9 9 9 9 9 9 9 9 9 9 9 9 10 10 10 10 10 9 9 10 10 10 10 10 10 10 10 10 10 10 10 10 10 10 10 10 10 10 10 10 10 10
9 9 9 9 9 9 8 8 8 9 9 9 9 9 9 9 9 9 9 9 9 9 9 10 10 10 9 9 9 9 10 10 10 10 10 10 10 10 10 10 10 10 10
8 8 8 8 8 8 8 8 8 8 8 8 8 8 9 9 9 9 9 9 9 9 9 9 9 9 9 9 9 9 9 9 9 9 9 9 9 9 9 9 9 10 10
8 7 8 8 8 8 8 7 7 8 8 8 8 8 8 8 8 8 8 8 9 9 9 9 9 9 9 9 9 9 9 9 9 9 9 9 9 9 9 9 9 9 9
7 7 7 7 7 7 7 7 7 7 7 7 7 7 7 8 8 8 8 8 8 8 8 8 8 8 8 8 8 8 8 8 9 9 9 8 8 8 8 8 8 9 8
6 6 6 7 7 6 6 6 6 6 6 6 6 6 6 7 7 7 8 8 7 7 7 7 8 8 8 7 8 8 8 8 8 8 8 8 8 8 8 8 8 8 8
6 6 6 6 6 6 6 6 6 6 6 6 5 5 5 6 6 6 7 7 7 7 7 7 7 7 7 7 7 7 8 8 8 8 8 8 7 7 8 8 8 8 8
6 6 5 5 5 5 5 5 5 5 5 5 5 5 5 5 5 5 5 6 6 6 6 6 6 6 6 6 6 6 7 7 7 7 7 7 7 7 7 7 7 7 7
5 5 5 5 5 5 5 5 5 5 4 4 4 4 4 4 4 4 4 5 5 5 5 5 5 5 5 6 6 6 6 6 7 7 7 7 7 7 7 7 7 7 7
4 5 4 4 4 4 4 4 4 4 4 4 4 4 4 4 4 4 4 4 4 5 5 5 5 5 5 5 5 6 6 6 6 6 6 6 6 6 6 6 6 6 6
4 4 4 4 4 4 4 4 4 4 4 4 3 3 3 4 4 4 4 4 3 4 4 4 4 4 4 4 5 5 5 5 5 6 6 6 6 6 6 6 6 6 6
3 3 3 3 4 4 4 3 3 3 3 3 3 3 3 3 3 3 3 3 3 3 3 3 4 4 4 4 4 4 5 5 5 5 5 5 5 5 5 6 6 6 6
3 3 3 3 3 3 3 3 3 3 3 3 3 3 3 3 3 3 3 3 3 3 3 3 3 3 3 4 4 4 4 4 4 5 5 5 5 5 5 5 5 5 5
2 2 3 3 2 3 3 2 2 2 2 2 2 2 2 2 2 2 2 2 2 2 2 3 3 3 3 3 3 3 3 4 4 4 4 4 4 4 4 4 5 5 5
2 2 2 2 2 2 2 2 2 2 2 2 2 2 2 2 1 2 2 2 2 2 2 2 2 2 2 2 2 3 3 3 3 3 4 4 4 4 4 4 4 4 4
2 2 2 2 1 1 1 1 1 1 1 1 1 1 1 1 1 1 1 1 2 2 1 1 2 2 2 2 2 2 2 2 3 3 3 3 3 3 3 4 4 4 4
1 1 1 1 1 1 1 1 1 1 1 1 1 1 1 1 1 1 1 1 1 1 1 1 1 1 1 2 2 2 2 2 2 2 2 2 3 3 3 3 3 4 4
1 1 1 1 1 1 1 1 0 0 0 0 0 0 0 0 -0 0 0 0 1 1 1 1 1 1 1 1 1 1 1 2 2 2 2 2 2 3 3 3 3 3 4
0 0 0 0 0 0 0 0 -0 -0 -0 -0 -0 -0 -0 -0 -0 -0 -0 0 0 0 0 0 0 0 1 1 1 1 1 1 1 1 2 2 2 2 2 3 3 3 3
-0 -0 -0 -0 -0 -0 -0 -0 -1 -1 -1 -1 -1 -1 -1 -1 -1 -0 -0 -0 -0 -0 -0 -0 -0 -0 -0 0 0 0 0 0 1 1 1 1 1 1 2 2 2 3 3
-1 -1 -1 -1 -1 -1 -1 -1 -1 -1 -1 -1 -1 -1 -1 -1 -1 -1 -1 -1 -0 -0 -0 -0 -1 -1 -0 -0 -0 -0 -0 -0 -0 0 0 0 1 1 1 2 2 2 3
-1 -1 -1 -1 -1 -1 -1 -1 -1 -2 -2 -2 -2 -1 -1 -1 -1 -1 -1 -1 -1 -1 -1 -1 -1 -1 -1 -1 -1 -1 -0 -0 -0 -0 -0 -0 0 1 1 1 2 2 2
-2 -2 -2 -2 -2 -2 -2 -2 -2 -2 -2 -2 -2 -2 -2 -2 -1 -2 -2 -1 -1 -1 -1 -1 -1 -1 -1 -1 -1 -1 -1 -1 -1 -1 -0 -1 -0 0 1 1 1 1 1
-2 -2 -2 -2 -2 -2 -2 -2 -2 -3 -3 -3 -3 -2 -2 -2 -2 -2 -2 -2 -2 -2 -2 -1 -1 -1 -1 -1 -1 -1 -1 -1 -2 -1 -1 -1 -1 -1 -1 0 0 1 1
Wind_Speed
2 2 2 2 3 2 3 3 3 4 5 5 5 6 6 6 6 6 5 6 8 9 10 11 12 12 11 11 11 11 10 10 9 9 9 9 9 9 9 9 9 9 9
2 2 3 3 3 3 3 3 4 4 4 4 5 6 7 7 7 7 7 7 8 9 10 12 12 13 13 12 12 12 12 11 10 10 10 10 10 10 10 10 10 10 10
3 3 3 3 3 3 4 4 4 4 4 5 6 6 6 7 7 8 8 7 8 9 10 12 12 13 13 13 12 12 12 12 11 11 11 12 11 11 11 11 11 11 11
3 3 3 3 3 3 3 3 4 4 5 5 5 5 6 6 8 8 8 8 8 8 9 11 12 12 13 13 13 13 13 12 12 12 12 12 12 12 12 12 12 12 12
3 3 3 3 3 3 3 4 4 4 5 6 6 6 6 7 7 8 8 9 9 9 9 9 11 12 12 13 13 13 13 13 13 13 13 13 13 13 13 13 13 13 13
3 3 3 3 3 3 4 4 5 5 5 5 6 6 7 7 7 7 8 8 8 9 9 8 8 8 10 11 12 13 14 14 14 14 14 14 15 15 14 14 14 14 13
3 3 3 3 3 4 4 5 5 5 5 4 5 6 6 7 7 6 6 6 6 7 8 8 7 6 6 9 10 11 13 14 15 14 15 15 16 16 15 15 15 15 14
3 3 3 3 3 4 5 5 4 4 4 4 4 4 4 5 5 5 6 6 7 6 6 7 7 7 7 7 8 11 12 13 15 15 15 15 16 16 15 16 16 15 15
4 4 4 4 4 4 5 5 5 6 5 5 5 4 4 5 5 4 6 6 6 6 6 6 7 7 8 7 8 9 10 13 15 16 16 16 16 16 16 15 16 16 15
4 4 5 5 4 4 5 5 6 6 7 6 5 5 6 5 5 4 4 5 6 7 7 6 6 7 8 8 8 10 10 12 14 16 16 16 16 16 16 15 15 15 15
4 4 5 5 5 5 5 6 5 6 6 6 5 5 5 6 8 6 7 6 6 6 6 7 6 7 8 8 8 10 11 12 13 14 15 15 15 15 15 15 14 15 14
4 5 5 5 5 5 5 6 6 7 6 7 6 6 6 5 5 6 7 8 7 7 7 6 6 6 7 8 9 10 11 12 12 13 13 14 15 15 14 14 14 14 14
4 5 5 5 5 5 5 6 6 6 7 7 7 6 6 7 6 6 7 7 8 8 7 6 6 6 6 7 8 9 11 12 12 12 13 14 14 15 15 14 14 14 14
5 5 5 5 5 5 5 5 5 5 5 6 6 6 5 6 6 6 6 6 7 8 7 7 6 6 6 7 8 10 10 12 12 13 13 14 13 14 14 14 14 13 13
5 6 5 5 5 5 5 5 4 5 5 6 6 6 5 5 6 6 6 6 6 7 8 7 5 6 6 7 8 9 10 10 11 12 12 12 12 13 13 13 13 13 13
5 5 5 5 5 5 5 5 5 5 6 5 5 5 6 5 5 5 6 6 7 8 8 6 6 7 7 7 9 9 9 10 10 10 11 11 11 12 12 12 12 12 12
5 5 5 5 5 5 5 5 6 6 6 6 6 6 6 6 5 5 5 6 6 6 8 7 6 7 8 8 8 8 8 8 7 9 10 10 11 11 12 12 12 12 12
5 5 5 5 5 5 5 5 6 6 6 6 6 6 6 5 6 6 5 6 6 6 7 8 7 6 8 8 8 8 7 7 7 8 9 10 10 11 11 11 12 11 11
5 5 5 5 5 5 5 5 6 6 6 6 6 6 6 6 6 5 6 5 5 5 6 6 6 6 6 6 7 7 7 6 7 7 8 8 9 10 11 11 11 10 10
5 5 5 5 5 5 5 5 5 5 5 5 6 6 6 6 6 6 5 5 5 5 5 5 5 5 5 6 5 5 5 5 6 6 6 6 7 8 9 10 9 9 9
5 5 5 5 4 4 4 4 4 5 5 5 5 5 5 5 6 6 5 5 5 4 4 4 4 5 5 4 4 4 5 6 6 4 5 4 5 4 5 7 8 8 8
5 5 4 4 4 3 4 4 4 5 5 5 5 5 5 5 5 6 7 6 6 5 5 4 4 5 6 5 4 4 5 5 5 3 5 5 4 4 4 4 5 5 5
5 5 4 4 5 4 4 3 4 4 4 4 4 4 4 4 4 5 5 5 5 6 6 6 6 6 6 5 5 5 5 5 6 5 5 5 4 4 4 3 4 4 4
4 4 5 5 5 4 4 4 4 4 4 4 4 4 4 4 4 5 4 4 5 4 5 5 5 6 5 5 5 6 5 5 5 4 4 4 4 4 4 3 4 4 4
4 4 5 5 5 5 4 4 4 3 3 4 4 4 4 4 4 5 4 4 5 4 4 4 4 4 5 5 5 4 4 3 4 4 3 3 3 4 3 3 3 3 3
4 4 5 5 5 5 5 4 4 3 3 3 3 3 4 4 4 4 4 4 4 4 3 3 3 3 3 4 5 4 4 3 3 3 2 2 2 2 2 2 2 3 3
Wind_Direction
276 270 254 246 257 262 257 260 258 257 254 252 247 245 246 249 246 247 249 244 253 261 267 268 265 262 259 258 257 254 252 251 247 249 245 245 245 248 248 250 253 255 257
269 272 262 254 257 264 262 261 258 261 260 256 253 250 249 250 248 245 250 247 245 255 262 268 267 263 258 257 257 256 255 247 246 250 248 245 246 246 250 249 252 254 255
265 272 259 251 259 264 260 260 260 262 264 259 257 256 256 253 252 249 251 252 248 249 258 263 266 265 261 258 258 257 256 249 249 250 250 246 246 248 251 251 251 252 254
274 267 258 248 252 258 255 254 261 262 264 264 263 262 260 256 254 254 253 251 251 252 253 258 262 264 263 260 259 259 258 253 251 249 251 249 248 248 251 254 253 251 252
273 269 260 262 248 249 248 251 260 263 266 270 270 267 262 256 255 254 254 253 251 250 252 253 256 261 263 262 261 260 260 256 254 251 252 252 250 250 250 252 254 252 252
269 265 253 263 261 254 250 249 256 265 266 270 274 272 265 259 254 253 255 256 251 249 249 253 252 255 260 264 263 260 260 259 258 255 253 255 252 250 249 250 252 251 251
273 264 259 257 262 257 257 255 258 257 261 267 275 278 271 256 251 254 255 258 258 257 254 252 249 253 258 261 263 266 266 264 261 260 257 257 255 252 250 251 252 252 251
273 263 257 255 257 262 259 253 254 256 255 246 256 271 276 265 247 253 252 255 258 258 260 262 257 257 261 262 263 265 269 272 268 263 263 262 259 255 252 251 251 252 252
268 267 258 257 254 249 250 252 246 248 248 247 244 249 262 265 292 260 255 253 254 257 260 262 265 265 264 264 266 265 271 275 275 267 265 265 262 257 255 254 253 252 251
267 265 256 257 253 247 248 252 253 251 242 245 251 258 262 271 268 275 257 254 259 262 263 264 266 265 263 264 266 269 272 273 276 273 268 268 263 259 255 254 255 257 255
269 264 257 256 254 250 250 250 253 252 248 248 251 259 260 260 254 257 269 271 270 267 268 269 270 269 265 263 265 266 270 275 275 276 273 271 266 262 257 253 255 257 257
276 267 261 259 255 253 251 250 249 249 252 252 252 249 252 255 253 254 264 270 273 274 271 269 267 267 267 265 266 270 273 280 281 276 273 276 273 266 263 258 256 256 255
273 266 262 261 259 256 255 254 251 250 250 253 253 254 254 257 259 261 265 273 280 283 277 270 270 268 269 269 272 275 275 278 278 278 276 275 273 271 266 263 258 253 253
268 266 262 260 262 261 260 256 253 253 250 251 255 256 261 261 261 257 259 267 278 280 274 271 275 268 272 274 278 278 275 275 276 277 281 278 271 269 269 264 255 254 254
274 265 263 263 264 262 257 256 255 255 254 252 253 256 259 262 262 263 260 255 256 271 277 273 271 270 279 281 285 281 279 278 278 279 282 277 268 266 267 264 256 254 254
275 269 265 264 264 261 258 255 258 260 261 259 254 254 259 264 267 263 262 264 260 258 268 275 279 283 288 286 286 284 283 285 281 284 282 279 265 264 263 266 260 255 254
277 271 265 266 268 267 261 256 256 260 259 261 259 254 258 264 265 265 263 264 261 257 262 275 277 279 283 288 289 288 287 282 280 280 285 282 267 261 262 266 265 256 255
285 277 268 265 266 266 262 258 257 258 255 258 262 261 263 264 263 263 261 263 261 255 256 269 277 280 282 285 289 290 292 286 285 285 285 285 276 261 260 266 266 258 254
288 284 273 266 265 264 261 260 259 261 261 259 261 260 264 265 265 268 266 263 263 261 256 261 274 283 287 288 293 292 294 293 291 286 281 279 281 271 261 266 265 257 257
290 288 286 273 264 261 259 261 264 264 264 265 264 262 261 261 267 272 273 271 269 266 259 258 268 279 289 293 290 292 297 300 297 294 286 281 280 280 271 268 267 261 260
298 293 295 287 270 262 260 265 268 266 267 270 270 267 265 267 275 276 275 276 273 268 264 264 271 284 287 290 288 290 295 301 299 298 297 293 292 292 285 275 268 259 260
307 303 296 293 283 271 277 271 273 269 269 267 271 275 275 273 278 276 278 278 277 266 260 266 272 273 281 287 289 289 296 303 301 310 302 296 298 295 300 291 297 271 255
313 312 304 300 292 287 287 276 287 279 272 264 264 271 277 281 282 272 276 279 280 283 276 265 264 269 280 285 287 285 287 291 293 304 306 298 302 298 301 319 331 318 284
315 316 315 309 301 297 300 289 291 276 274 277 278 275 275 276 277 280 282 286 283 282 283 274 269 273 282 284 281 283 290 297 300 301 299 293 304 305 313 314 341 331 320
315 316 313 315 312 309 312 303 294 281 275 278 278 278 276 276 285 292 284 283 287 294 303 300 297 297 300 300 295 289 289 286 296 304 314 296 302 313 319 316 343 348 334
312 316 318 321 318 312 317 318 308 282 278 278 279 278 278 282 291 292 279 276 279 294 302 306 307 311 309 307 299 282 279 281 289 297 319 304 304 320 323 334 345 348 348
Height
1501 1501 1500 1500 1501 1501 1501 1501 1501 1501 1501 1501 1501 1501 1501 1501 1501 1501 1501 1501 1501 1501 1502 1502 1502 1502 1502 1502 1501 1502 1502 1502 1502 1502 1502 1502 1502 1502 1501 1501 1501 1500 1500
1498 1498 1498 1497 1498 1498 1498 1498 1498 1498 1498 1498 1498 1498 1498 1498 1497 1497 1497 1497 1497 1497 1497 1497 1497 1497 1497 1497 1497 1497 1497 1497 1497 1498 1498 1498 1498 1497 1498 1497 1497 1497 1496
1494 1494 1494 1494 1494 1494 1494 1494 1494 1494 1494 1494 1494 1494 1494 1494 1494 1493 1493 1493 1493 1493 1493 1493 1493 1493 1493 1493 1493 1493 1493 1493 1493 1493 1493 1493 1493 1493 1493 1493 1493 1493 1492
1491 1491 1491 1490 1490 1490 1491 1491 1491 1490 1490 1490 1490 1489 1489 1489 1489 1489 1489 1489 1489 1488 1488 1488 1488 1488 1487 1488 1488 1488 1488 1488 1488 1488 1489 1489 1489 1489 1489 1489 1488 1488 1488
1487 1487 1487 1487 1486 1486 1487 1487 1487 1486 1486 1486 1486 1485 1485 1485 1485 1485 1484 1484 1484 1483 1483 1483 1483 1482 1482 1482 1482 1483 1483 1483 1483 1483 1483 1484 1484 1484 1484 1484 1484 1483 1483
1484 1483 1483 1483 1483 1483 1483 1483 1483 1482 1482 1482 1482 1481 1480 1480 1480 1480 1480 1479 1479 1479 1478 1478 1477 1477 1477 1477 1477 1477 1477 1477 1477 1477 1478 1478 1478 1478 1478 1478 1478 1478 1478
1480 1479 1479 1479 1479 1479 1478 1478 1478 1478 1478 1478 1478 1477 1476 1475 1475 1475 1474 1474 1474 1474 1473 1472 1472 1472 1471 1471 1471 1471 1471 1471 1472 1471 1472 1472 1472 1472 1472 1473 1473 1473 1473
1475 1475 1475 1475 1475 1475 1474 1474 1474 1473 1473 1474 1474 1473 1472 1472 1470 1469 1469 1469 1469 1469 1468 1468 1467 1466 1466 1466 1465 1465 1465 1465 1465 1466 1465 1466 1466 1466 1466 1467 1467 1468 1468
1471 1471 1471 1471 1471 1471 1470 1470 1469 1469 1469 1470 1470 1471 1470 1467 1465 1464 1463 1464 1464 1464 1463 1463 1461 1461 1461 1460 1460 1459 1459 1459 1459 1459 1458 1459 1459 1459 1460 1461 1461 1462 1462
1467 1467 1467 1466 1466 1466 1466 1466 1465 1465 1465 1465 1465 1466 1467 1465 1464 1460 1459 1459 1459 1459 1458 1457 1457 1456 1455 1455 1454 1453 1453 1453 1452 1452 1452 1452 1452 1452 1453 1454 1455 1456 1456
1463 1463 1462 1462 1462 1462 1462 1461 1461 1461 1461 1461 1460 1461 1461 1461 1460 1458 1455 1453 1453 1453 1453 1452 1451 1451 1450 1449 1448 1447 1447 1446 1445 1445 1445 1445 1445 1445 1446 1448 1448 1449 1450
1459 1459 1458 1458 1458 1457 1457 1457 1457 1457 1457 1456 1456 1456 1456 1456 1455 1455 1452 1449 1448 1447 1448 1447 1446 1445 1444 1443 1442 1441 1441 1440 1439 1438 1438 1438 1439 1439 1440 1441 1442 1443 1443
1455 1455 1454 1454 1454 1453 1453 1453 1453 1452 1452 1452 1452 1452 1452 1451 1451 1451 1449 1446 1444 1442 1442 1442 1441 1440 1439 1438 1436 1436 1434 1434 1433 1432 1432 1432 1432 1433 1433 1434 1435 1436 1437
1451 1451 1450 1450 1450 1449 1448 1449 1448 1448 1447 1447 1447 1447 1446 1446 1446 1446 1445 1443 1440 1438 1436 1436 1436 1435 1434 1432 1431 1430 1429 1428 1427 1426 1426 1426 1426 1427 1426 1427 1428 1429 1431
1447 1447 1446 1446 1445 1445 1444 1444 1443 1443 1443 1442 1442 1441 1441 1441 1440 1440 1440 1439 1439 1435 1432 1431 1431 1430 1428 1427 1426 1425 1423 1422 1421 1420 1419 1419 1419 1420 1420 1421 1422 1423 1424
1443 1442 1441 1441 1441 1440 1440 1439 1439 1439 1438 1437 1437 1436 1436 1436 1435 1435 1435 1434 1434 1432 1429 1426 1427 1426 1424 1422 1421 1420 1418 1417 1416 1414 1414 1413 1413 1413 1414 1415 1416 1417 1418
1438 1437 1437 1436 1436 1435 1435 1435 1434 1434 1433 1432 1432 1431 1431 1431 1430 1430 1429 1429 1428 1427 1425 1422 1423 1422 1420 1418 1417 1415 1414 1413 1411 1410 1408 1407 1407 1407 1408 1409 1410 1411 1412
1435 1434 1433 1432 1431 1431 1430 1430 1429 1429 1428 1427 1427 1427 1426 1426 1425 1425 1424 1423 1422 1422 1421 1419 1418 1417 1416 1415 1413 1411 1410 1408 1407 1405 1404 1403 1402 1402 1403 1404 1404 1405 1406
1431 1430 1429 1428 1427 1426 1426 1425 1425 1424 1424 1423 1423 1422 1422 1421 1420 1420 1419 1418 1418 1417 1417 1415 1413 1413 1412 1411 1409 1408 1406 1405 1403 1401 1400 1398 1398 1398 1398 1399 1399 1399 1400
1427 1426 1425 1424 1423 1422 1421 1421 1420 1420 1419 1419 1419 1418 1417 1417 1417 1416 1415 1415 1414 1413 1413 1412 1411 1410 1409 1407 1406 1404 1402 1401 1400 1398 1396 1395 1394 1393 1393 1393 1392 1393 1394
1423 1422 1421 1420 1419 1418 1417 1416 1416 1416 1415 1415 1414 1414 1413 1413 1413 1412 1412 1411 1410 1409 1409 1408 1407 1406 1405 1404 1403 1401 1400 1398 1396 1395 1393 1392 1391 1389 1388 1387 1387 1387 1389
1420 1419 1417 1416 1415 1414 1413 1413 1413 1412 1411 1411 1410 1410 1409 1409 1409 1409 1408 1408 1407 1407 1406 1405 1404 1403 1402 1401 1400 1399 1398 1395 1393 1393 1391 1389 1388 1386 1384 1383 1382 1383 1384
1417 1415 1414 1413 1412 1411 1410 1409 1409 1409 1408 1407 1407 1406 1405 1405 1405 1405 1405 1404 1404 1403 1403 1403 1401 1400 1399 1398 1398 1396 1395 1394 1392 1391 1389 1387 1385 1384 1382 1381 1381 1381 1382
1414 1413 1411 1410 1409 1407 1407 1406 1406 1405 1405 1404 1403 1403 1402 1402 1402 1402 1401 1400 1400 1399 1399 1399 1398 1397 1396 1396 1395 1394 1392 1391 1390 1389 1387 1385 1383 1382 1382 1381 1380 1380 1380
1412 1411 1409 1407 1406 1404 1404 1403 1403 1402 1401 1400 1400 1400 1399 1399 1398 1398 1398 1397 1396 1396 1395 1395 1394 1394 1393 1392 1392 1391 1390 1389 1387 1387 1386 1384 1382 1381 1380 1379 1379 1379 1379
1410 1408 1406 1405 1403 1402 1401 1400 1400 1399 1398 1397 1397 1397 1396 1396 1395 1395 1395 1394 1393 1393 1392 1391 1391 1390 1390 1389 1389 1389 1388 1387 1386 1385 1384 1383 1382 1381 1380 1379 1379 1378 1378